W4IOJ Weather Reports


time (UTC)temp
C
wind
direction
speed
KPH
gust
KPH
rain 1hr
cm
rain 24hr
cm
rain mn
cm
humidity
%
barometer
mb
20260504214522 26 17 0.0 8.0 0.00 0.00 0.00 38 1012.5
20260504213029 25 198 1.6 8.0 0.00 0.00 0.00 38 1012.8
20260504211534 25 206 3.2 4.8 0.00 0.00 0.00 36 1012.8
20260504210023 25 307 1.6 8.0 0.00 0.00 0.00 39 1012.9
20260504204520 25 168 3.2 8.0 0.00 0.00 0.00 38 1013.1
20260504203016 25 234 3.2 11.3 0.00 0.00 0.00 39 1013.2
20260504201521 25 238 1.6 8.0 0.00 0.00 0.00 41 1013.5
20260504200009 25 315 4.8 12.9 0.00 0.00 0.00 40 1013.6
20260504194527 25 251 4.8 9.7 0.00 0.00 0.00 40 1014.0
20260504193024 24 1 1.6 12.9 0.00 0.00 0.00 40 1014.3
20260504191522 24 314 3.2 8.0 0.00 0.00 0.00 41 1014.6
20260504190020 24 162 3.2 11.3 0.00 0.00 0.00 42 1014.9
20260504184533 23 308 3.2 12.9 0.00 0.00 0.00 41 1015.2
20260504183012 22 321 0.0 4.8 0.00 0.00 0.00 43 1015.3
20260504181523 22 260 3.2 6.4 0.00 0.00 0.00 42 1015.6
20260504180025 22 284 1.6 8.0 0.00 0.00 0.00 41 1015.6
20260504174524 22 352 1.6 11.3 0.00 0.00 0.00 41 1015.8
20260504173023 21 176 1.6 3.2 0.00 0.00 0.00 41 1015.8
20260504171523 21 215 4.8 11.3 0.00 0.00 0.00 43 1015.9
20260504081515 3 158 0.0 3.2 0.00 0.00 0.00 85 1017.8
20260504044522 6 97 0.0 3.2 0.00 0.00 0.00 77 1017.8
20260504043020 6 63 0.0 3.2 0.00 0.00 0.00 75 1017.7
20260504041531 6 130 0.0 3.2 0.00 0.00 0.00 75 1017.6
20260504040024 7 135 0.0 3.2 0.00 0.00 0.00 74 1017.8
20260504034523 7 120 0.0 3.2 0.00 0.00 0.00 74 1017.5
20260504033024 7 91 0.0 3.2 0.00 0.00 0.00 73 1017.5
20260504031525 7 131 0.0 3.2 0.00 0.00 0.00 73 1017.5
20260504030022 7 131 0.0 0.0 0.00 0.00 0.00 70 1017.4
20260504024526 8 131 0.0 3.2 0.00 0.00 0.00 68 1017.4
20260504023026 8 117 1.6 3.2 0.00 0.00 0.00 67 1017.4
20260504021526 8 146 0.0 0.0 0.00 0.00 0.00 65 1017.3
20260504020024 9 179 0.0 3.2 0.00 0.00 0.00 62 1017.4
20260504014528 9 203 0.0 0.0 0.00 0.00 0.00 59 1017.4
20260504013025 10 203 0.0 3.2 0.00 0.00 0.00 57 1017.1
20260504011526 10 201 0.0 1.6 0.00 0.00 0.00 55 1016.9
20260504010026 11 201 0.0 3.2 0.00 0.00 0.00 52 1016.8
20260504004529 12 201 0.0 0.0 0.00 0.00 0.00 49 1016.4
20260504003029 13 201 0.0 3.2 0.00 0.00 0.00 47 1016.2
20260504001531 13 215 0.0 3.2 0.00 0.00 0.00 44 1016.2
20260504000006 15 229 0.0 3.2 0.00 0.00 0.00 40 1016.1
20260503234503 15 243 0.0 6.4 0.00 0.00 0.00 37 1016.2
20260503233011 16 289 1.6 8.0 0.00 0.00 0.00 34 1016.2
20260503231520 17 229 1.6 8.0 0.00 0.00 0.00 34 1016.1
20260503230014 17 1 3.2 12.9 0.00 0.00 0.00 32 1016.2
20260503224513 17 340 1.6 6.4 0.00 0.00 0.00 31 1016.4
20260503223010 18 258 3.2 9.7 0.00 0.00 0.00 30 1016.6
20260503221508 18 91 3.2 12.9 0.00 0.00 0.00 30 1016.6
20260503220004 18 155 1.6 8.0 0.00 0.00 0.00 30 1016.7